COSMOS 2251 DEB, 34468

Orbit data source: Space-Track

COSMOS 2251 DEB, 34468 is space debris in LEO originally from a launch on Wed, 16 Jun 1993 UTC launched from the Plesetsk Missile And Space Complex (PKMTR). The debris from Iridium 33, an American commercial communications satellite, has been tracked extensively since its accidental collision with the defunct Russian satellite Cosmos 2251 in 2009. This event, occurring at high speed in low Earth orbit (LEO), generated thousands of pieces of space debris, significantly increasing the risk of further collisions. The Iridium 33 debris cloud has impacted space traffic management and orbital debris mitigation strategies, making it a subject of ongoing study in space situational awareness.

Loading next visibility...
Identifier
34468, 1993-036TM
Orbit
LEO
Country
Flag of CISCIS
Related business
Manufacturer
Unknown
Mission
Spacecraft
Bus & Motor
Unknown
Mass
Unknown
Launch date (UTC)
1993-06-16 (33 years ago)
Launch vehicle
Unknown
Launch site
Plesetsk Missile And Space Complex (PKMTR)
Object type
Payload
Rocket body
Debris
Shape & HBR
Unknown shape, 0.1 m
Radar Cross Section
Medium (>0.1 m² and <1 m²)

Expand to show TLE details & history
Last TLE update: 9 hours ago

TLE from 9 hours ago
0 COSMOS 2251 DEB
1 34468U 93036TM  26168.68378807  .00000545  00000-0  14912-3 0  9990
2 34468  74.0117 126.8435 0076116 226.7921 132.6866 14.48003732911674
Epoch: 2026-06-17T16:24Z
TLE epoch observation values (Epoch: 2026-06-17T16:24:39.289Z)
Latitude
0.00003°
Longitude
-25.25814°
Altitude
771.721 km
Speed
7.449 km/s
True Right ascension
08h 27m 22s
True Declination
0° 00' 00"
Sunlit
Object was in daylight at epoch
Visualization orbit readout
Latitude
Unknown
Longitude
Unknown
Altitude
Unknown
Speed
Unknown
Apparent Right ascension
Unknown
Apparent Declination
Unknown
Sunlit
N/A
Visualization observer readout
Local Sidereal Time
12:08:37
Azimuth
Unknown
Elevation
Unknown
Doppler factor
Unknown
Orbital elements
Apogee altitude
783.891 km
Perigee altitude
675.686 km
Semi-major axis
7,107.926 km
Eccentricity
0.00761
Inclination
74.0117°
RAAN
126.8435°
Arg. of periapsis
226.7921°
True anomaly
133.32363°
Mean anomaly
132.6866°
Eccentric anomaly
133.00552°
Mean motion
3.62184 °/min
Orbital period
99.4 mins
BSTAR
0.00014912

Documentation

Showing up to 5 results
|